Location: La Silve
(44.2414°N, 5.8889°E)
Time: 05:48:31
(UTC+00:00)

Cosmos 2112 Rocket - Pass Details

Date: 01 December 2020
Orbit: 756 x 787 km, 74.0° (Epoch: 27 January)

Event Time Altitude Azimuth Distance (km) Brightness Sun altitude
Rises 18:02:06 0° 186° (S) 3,226 7.4 -21.5°
Reaches altitude 10° 18:04:30 10° 182° (S) 2,309 6.6 -21.9°
Maximum altitude 18:09:37 56° 106° (ESE) 921 4.0 -22.8°
Enters shadow 18:09:51 56° 94° (E) 927 4.0 -22.8°
